Flag for U.S.A. Weather past 2 weeks in Bradenton, Florida, U.S.A.

Now
77 °F

Passing clouds.


Feels Like: 78 °F
Forecast: 77 / 91 °F
Wind: 6 mph from East

Location: Sarasota-Bradenton International Airport

Current Time: Aug 31, 2014 at 2:41:01 AM

Latest Report: Aug 31, 2014 at 1:53 AM


Visibility: 10 mi

Pressure: 30.11 "Hg

Humidity: 90%

Dew point: 74 °F

Location of BradentonLocation

Historic Weather in Bradenton — Graph

°F

Bradenton temperature yesterday

Maximum temperature yesterday: 95 °F (at 2:53 PM)
Minimum temperature yesterday: 75 °F (at 3:53 AM)
Average temperature yesterday: 83 °F

Past Weeks' High & Low Weather Summary

 TemperatureHumidityPressure
High99 °F (Aug 23, 12:53 PM)96% (Aug 28, 5:53 AM)30.12 "Hg (Aug 28, 5:53 AM)
Low74 °F (Aug 27, 5:53 AM)37% (Aug 26, 2:53 PM)29.75 "Hg (Aug 24, 5:53 PM)
Average85 °F70%29.98 "Hg
* Reported Aug 16 12:53 AM — Aug 31 12:53 AM, Bradenton, Weather by CustomWeather, © 2014

Note: Actual official high and low records may vary slightly from our data, if they occured in-between our weather recording intervals... More about our weather records

Advertising

Bradenton weather history for previous 24 hours

 ConditionsComfort  
Time TempWeatherWind HumidityBarometerVisibility
12:53 AM
Aug 31
77 °FClear.3 mph90%30.12 "Hg10 mi
11:53 PM
Aug 30
78 °FPassing clouds.No wind90%30.12 "Hg10 mi
10:53 PM77 °FPassing clouds.No wind90%30.10 "Hg10 mi
9:53 PM78 °FClear.3 mph87%30.08 "Hg10 mi
8:53 PM77 °FClear.3 mph88%30.07 "Hg10 mi
7:53 PM77 °FLight rain. Broken clouds.No wind88%30.06 "Hg10 mi
6:53 PM80 °FThundershowers. Cloudy.10 mph74%30.07 "Hg10 mi
6:01 PM92 °FThunderstorms. Passing clouds.7 mph64%30.03 "Hg10 mi
5:53 PM92 °FThundershowers. Sunny.14 mph62%29.99 "Hg10 mi
4:53 PM91 °FScattered clouds.9 mph64%30.00 "Hg10 mi
3:53 PM95 °FPassing clouds.6 mph46%30.02 "Hg10 mi
2:53 PM95 °FPassing clouds.14 mph47%30.04 "Hg10 mi
1:53 PM94 °FScattered clouds.12 mph49%30.06 "Hg10 mi
12:53 PM91 °FScattered clouds.8 mph56%30.08 "Hg10 mi
11:53 AM91 °FPassing clouds.10 mph60%30.10 "Hg10 mi
10:53 AM89 °FSunny.10 mph65%30.11 "Hg10 mi
9:53 AM86 °FSunny.12 mph75%30.11 "Hg10 mi
8:53 AM81 °FSunny.8 mph82%30.10 "Hg10 mi
7:53 AM76 °FClear.6 mph91%30.10 "Hg10 mi
6:53 AM75 °FClear.7 mph90%30.09 "Hg10 mi
5:53 AM75 °FClear.6 mph90%30.08 "Hg10 mi
4:53 AM75 °FClear.5 mph90%30.06 "Hg10 mi
3:53 AM75 °FClear.7 mph88%30.07 "Hg10 mi
2:53 AM77 °FClear.9 mph82%30.07 "Hg10 mi
Weather by CustomWeather, © 2014

See weather overviewHow to use our weather pages